Погода Красная Поляна

Погода Красная Поляна : погода сейчас, прогноз погоды и архив. Всё, что Вы хотите узнать о погоде Красная Поляна!

Поиск расширенной информации на нашем сайте:

Другие новости

Новости СМИ2

Главная страница сайта

Новости сайта

03.07.2017

Напоминаем, что на нашем специализированном сайте Метеоцентр.Азия вы можете получить высокодетализированные автоматические прогнозы погоды по пунктам России, СНГ и мира в авиационном формате (включающие направление и скорость ветра, видимость, явления погоды, количество и форму облачности, нижнюю и верхнюю границу облачности).


Погода Красная Поляна - сегодня

Время (UTC), дата Ветер
(°,м/с) 
Видим.   Явления Облачность Т
(°С)
Тd
(°С)
f(%) Тe
(°С)
Pmin
(гПа)
dP
(гПа)
Po
(мм)
O2
(г/м3)
Тmin Tmax R s Состояние
почвы
12 09.12.17 010 (С) 20000 м    1/0 верхняя 
[Ci sp]
+6.8 +1.3 68 +8  1022.5  -1.3  716  281           
15 09.12.17 020 (С) 20000 м    ясно 
+2.3 +1 91 +3  1023.7  0.1  716  286    +8.5       
18 09.12.17 040 (СВ) 16000 м    ясно 
+0.8 +0.1 95 +1  1024.3  0.2  716  288           
21 09.12.17 040 (СВ) 20000 м    ясно 
+0.7 -0.9 89 1023.8  -0.5  716  288           
00 10.12.17 040 (СВ) 20000 м    3/0 верхняя 
[Ci fib]
-0.8 -1.4 96 1024.7  0.4  716  290           
03 10.12.17 050 (СВ) 20000 м    8/0 верхняя 
[Ci fib]
+1 -1.4 84 +2  1023  -1.1  715  287  -0.9      12  равномерный
мокрый или
старый снег
100% 
06 10.12.17 010 (С) 20000 м    4/1 1000 м средняя, верхняя 
[Cu med, cong|Ac As|Ci sp]
+1.4 -1.3 82 +1  1022.7  -0.2  715  287           
09 10.12.17 тихо ()   20000 м    ясно 
+7.9 +0.6 60 +8  1019.1  -1.8  714  279           
12 10.12.17 020 (С) 19000 м    3/0 средняя 
[Ac lent]
+7.7 +0.9 62 +9  1018.1  -1  713  279           
15 10.12.17 020 (С) 19000 м    ясно 
+4.3 +0.8 78 +4  1019  0.1  713  283    +10.2       
18 10.12.17 050 (СВ) 20000 м    ясно 
+3.2 +0.1 80 +3  1019.3  713  284           
21 10.12.17 060 (СВ) 20000 м    10/0 средняя 
[Ac As]
+2.8 +0.5 85 +4  1020.2  0.7  714  285           
00 11.12.17 250 (З) 2200 м  ливневой дождь  10/10 600 м кучево-дожд. 
[Cb cap]
+2.7 +2.6 99 +3  1023  2.7  716  285           
03 11.12.17 090 (В) 1600 м  слаб. ливневой дождь  10/10 600 м кучево-дожд. 
[Cb cap]
+0.7 +0.7 100 1026.2  2.4  718  288  +0.4    17  равномерный
мокрый или
старый снег
100% 
06 11.12.17 010 (С) 18000 м  {ливн. осадки}  4/1 1500 м верхняя 
[Cu med, cong|Ci]
+1.1 +1.1 100 +2  1028.1  1.9  719  288           
09 11.12.17 140 (ЮВ) 17000 м    10/0 верхняя 
[Ci]
+4.6 +1.6 81 +5  1027.9  0.7  720  285           
12 11.12.17 140 (ЮВ) 20000 м    10/0 верхняя 
[Ci]
+6.3 +1.2 70 +7  1027.5  720  283           
15 11.12.17 040 (СВ) 19000 м    10/0 верхняя 
[Ci]
+3.4 +1 84 +4  1030  1.6  721  287    +7.1       
18 11.12.17 050 (СВ) 20000 м    8/0 верхняя 
[Ci]
+3.6 +0.1 78 +4  1029.7  -0.2  721  286           
21 11.12.17 030 (СВ) 20000 м    10/3 1500 м верхняя 
[Sc|Ci]
+2.2 -0.4 83 +3  1030.7  0.6  721  288           
00 12.12.17 020 (С) 20000 м    4/0 верхняя 
[Ci]
+1.1 -0.8 87 +2  1030.5  -0.5  721  289           
03 12.12.17 020 (С) 20000 м    4/0 верхняя 
[Ci]
+1.8 -3.5 68 +3  1029.5  -0.8  720  289  +0.4      равномерный
мокрый или
старый снег
100% 
06 12.12.17 080 (В) 20000 м    ясно 
+0 -2.5 83 +1  1030.7  0.7  721  291  -0.9         
09 12.12.17 170 (Ю) 20000 м    3/0 верхняя 
[Cc]
+7.3 -2.4 50 +8  1027.3  -1.4  720  283           
12 12.12.17 060 (СВ) 19000 м    8/0 верхняя 
[Ci fib]
+8.8 -1 50 +10  1025.2  -1.6  718  280           
Время (UTC), дата Ветер
(°,м/с) 
Видим.   Явления Облачность Т
(°С)
Тd
(°С)
f(%) Тe
(°С)
Pmin
(гПа)
dP
(гПа)
Po
(мм)
O2
(г/м3)
Тmin Tmax R s Состояние
почвы

Для получения пояснительной информации подведите курсор к названию столбца.

ПОГОДА Красная Поляна - архив

Всё, что Вы хотите узнать о погоде Красная Поляна - удобно и подробно!

Выберите нужную дату (начиная с 1 января 2015* года) и нажмите кнопку "Найти".
Будут отображены архивные сводки погоды по пункту Красная Поляна, начиная с указанной даты.


Отображать данные в формате CSV (для использования в таблицах Excel)


Внимание! Наш архив погоды предназначен исключительно для личного некоммерческого использования в познавательных целях. Если Вам необходимы официальные справки о состоянии погоды (для производственных, юридических, коммерческих и т.п. целей), обращайтесь в органы Росгидромета.

*Примечание: данная дата относится к архиву по метеостанциям СССР (Россия, СНГ, Балтия).
Архив по метеостанциям Зарубежной Европы и Азии (кроме Китая) хранится 10 дней, по другим регионам земного шара (Китай, Африка, Америка, Австралия, Океания) - 1 день.

Красная Поляна - район местоположения метеостанции


Название, широта, долгота, высота метеостанции:
Красная Поляна 43.7°ш. 40.2°д. 568 м над ур. моря [Российская Федерация]

Дополнительная информация

В oтличие oт бoльшинства пoгoдных сайтoв мы публикуем пoдрoбную метеoинфoрмацию в детальнoм прoфессиoнальнoм фoрмате.

Характеристики температуры и влажнoсти вoздуха измеряются на высoте 2 м в тени вдали oт зданий и деревьев.
Скoрoсть ветра измеряется на высoте 10 м (на урoвне рoста челoвека скoрoсть ветра ниже в 1.5-2 раза). Если метеoстанция нахoдится в гoрoде или в лесу, тo скoрoсть ветра занижена на 2-4 м/с пo сравнению с oткрытым местoм. Скoрoсть ветра над акватoриями крупных рек и oзёр, а также на вершинах хoлмoв на 2-5 м/с выше, чем в oбычных услoвиях.
Атмoсфернoе давление в разных тoчках местнoсти мoжет значительнo oтличаться oт давления на метеoстанции, в зависимoсти oт услoвий рельефа (при пoдъёме на 10 м давление пoнижается примернo на 1 мм рт.ст.).